Hyeres, France

4:34 AM CEST on September 23, 2017 (GMT +0200)
Le Palyvestre Navy

Weather History for LFTH - March, 2013

Change the Weather History Date:

Saturday, March 2, 2013

  Actual Average Record
Temperature  
Mean Temperature 52 °F -  
Max Temperature 62 °F 58 °F 78 °F (2008)
Min Temperature 41 °F 43 °F 24 °F (2005)
Degree Days  
Heating Degree Days 14    
Growing Degree Days 2 (Base 50)    
Moisture  
Dew Point 39 °F    
Average Humidity 62    
Maximum Humidity 93    
Minimum Humidity 34    
Precipitation  
Precipitation 0.00 in - - ()
Sea Level Pressure  
Sea Level Pressure 29.97 in    
Wind  
Wind Speed 5 mph ()    
Max Wind Speed 12 mph    
Max Gust Speed -    
Visibility 5.8 miles    
Events      
Averages and records for this station are not official NWS values.
T = Trace of Precipitation, MM = Missing Value Source: Averaged Metar Reports

Daily Weather History Graph

Daily Weather History Graph

Search for Another Location

Airport or City:

Trip Planner

Search our weather history database for the weather conditions in past years. The results will help you decide how hot, cold, wet, or windy it might be!

Date:

Astronomy

Mar. 02, 2013 Rise Set
Actual Time 7:09 AM CET 6:25 PM CET
Civil Twilight 6:41 AM CET 6:54 PM CET
Nautical Twilight 6:08 AM CET 7:27 PM CET
Astronomical Twilight 5:35 AM CET 8:00 PM CET
Moon 11:57 PM CET (3/2) 9:17 AM CET (3/2)
Length of Visible Light 12h 13m
Length of Day
11h 16m
Waning Gibbous, 76% of the Moon is Illuminated
Mar 2
Waning Gibbous
Mar 4
Last Quarter
Mar 11
New
Mar 19
First Quarter
Mar 27
Full

Hourly Weather History & Observations

Time (CET) Temp. Windchill Dew Point Humidity Pressure Visibility Wind Dir Wind Speed Gust Speed Precip Events Conditions
12:00 AM 51.8 °F - 37.4 °F 58% 29.92 in 6.2 mi NE 9.2 mph - N/A   Unknown
12:30 AM 50.0 °F - 39.2 °F 66% 29.92 in 6.2 mi NNW 3.5 mph - N/A   Unknown
1:00 AM 50.0 °F - 37.4 °F 62% 29.92 in 6.2 mi NNW 4.6 mph - N/A   Unknown
1:30 AM 50.0 °F - 37.4 °F 62% 29.92 in 6.2 mi NW 4.6 mph - N/A   Unknown
2:00 AM 51.8 °F - 35.6 °F 54% 29.92 in 6.2 mi North 5.8 mph - N/A   Unknown
2:30 AM 50.0 °F - 35.6 °F 58% 29.89 in 6.2 mi North 4.6 mph - N/A   Unknown
3:00 AM 50.0 °F - 35.6 °F 58% 29.89 in 6.2 mi NNW 5.8 mph - N/A   Unknown
3:30 AM 50.0 °F - 35.6 °F 58% 29.89 in 6.2 mi North 6.9 mph - N/A   Unknown
4:00 AM 50.0 °F - 35.6 °F 58% 29.89 in 6.2 mi North 5.8 mph - N/A   Unknown
4:30 AM 50.0 °F - 35.6 °F 58% 29.89 in 6.2 mi NNW 4.6 mph - N/A   Unknown
5:00 AM 50.0 °F - 35.6 °F 58% 29.89 in 6.2 mi ENE 3.5 mph - N/A   Unknown
5:30 AM 50.0 °F - 35.6 °F 58% 29.89 in 6.2 mi North 8.1 mph - N/A   Unknown
6:00 AM 51.8 °F - 35.6 °F 54% 29.89 in 6.2 mi North 9.2 mph - N/A   Unknown
6:30 AM 51.8 °F - 35.6 °F 54% 29.89 in 6.2 mi North 6.9 mph - N/A   Unknown
7:00 AM 51.8 °F - 33.8 °F 50% 29.92 in 6.2 mi North 11.5 mph - N/A   Unknown
7:30 AM 51.8 °F - 33.8 °F 50% 29.92 in 6.2 mi North 6.9 mph - N/A   Unknown
8:00 AM 51.8 °F - 35.6 °F 54% 29.92 in 6.2 mi NNE 5.8 mph - N/A   Unknown
8:30 AM 51.8 °F - 33.8 °F 50% 29.92 in 6.2 mi NNW 4.6 mph - N/A   Unknown
9:00 AM 55.4 °F - 35.6 °F 47% 29.92 in 6.2 mi NNW 4.6 mph - N/A   Unknown
9:30 AM 55.4 °F - 35.6 °F 47% 29.95 in 6.2 mi North 4.6 mph - N/A   Unknown
10:00 AM 59.0 °F - 35.6 °F 42% 29.95 in 6.2 mi North 5.8 mph - N/A   Unknown
10:30 AM 60.8 °F - 35.6 °F 39% 29.95 in 6.2 mi Variable 2.3 mph - N/A   Unknown
11:00 AM 62.6 °F - 33.8 °F 34% 29.95 in 6.2 mi Variable 2.3 mph - N/A   Unknown
11:30 AM 60.8 °F - 39.2 °F 45% 29.95 in 6.2 mi SW 6.9 mph - N/A   Unknown
12:00 PM 59.0 °F - 41.0 °F 51% 29.95 in 6.2 mi SSW 8.1 mph - N/A   Unknown
12:30 PM 62.6 °F - 37.4 °F 39% 29.95 in 6.2 mi South 6.9 mph - N/A   Unknown
1:00 PM 60.8 °F - 42.8 °F 52% 29.98 in 6.2 mi SE 10.4 mph - N/A   Unknown
1:30 PM 60.8 °F - 46.4 °F 59% 29.98 in 6.2 mi ESE 11.5 mph - N/A   Unknown
2:00 PM 59.0 °F - 44.6 °F 59% 29.98 in 6.2 mi SE 10.4 mph - N/A   Unknown
2:30 PM 60.8 °F - 46.4 °F 59% 29.98 in 6.2 mi SE 8.1 mph - N/A   Unknown
3:00 PM 59.0 °F - 44.6 °F 59% 29.98 in 6.2 mi SSE 8.1 mph - N/A   Unknown
3:30 PM 59.0 °F - 46.4 °F 63% 29.98 in 6.2 mi SW 9.2 mph - N/A   Partly Cloudy
4:00 PM 59.0 °F - 46.4 °F 63% 30.01 in 6.2 mi SW 6.9 mph - N/A   Unknown
4:30 PM 57.2 °F - 46.4 °F 67% 30.01 in 6.2 mi SW 5.8 mph - N/A   Unknown
5:00 PM 57.2 °F - 44.6 °F 63% 30.01 in 6.2 mi SW 4.6 mph - N/A   Unknown
5:30 PM 57.2 °F - 44.6 °F 63% 30.01 in 6.2 mi Variable 2.3 mph - N/A   Unknown
6:00 PM 55.4 °F - 44.6 °F 67% 30.01 in 6.2 mi South 2.3 mph - N/A   Unknown
6:30 PM 53.6 °F - 44.6 °F 72% 30.04 in 6.2 mi Variable 2.3 mph - N/A   Unknown
7:00 PM 51.8 °F - 42.8 °F 71% 30.04 in 5.0 mi Calm Calm - N/A   Unknown
7:30 PM 48.2 °F - 41.0 °F 76% 30.04 in 4.3 mi NW 1.2 mph - N/A   Unknown
8:00 PM 46.4 °F - 42.8 °F 87% 30.04 in 3.7 mi North 2.3 mph - N/A   Unknown
8:30 PM 46.4 °F 45.2 °F 41.0 °F 81% 30.06 in 3.7 mi North 3.5 mph - N/A   Unknown
9:00 PM 44.6 °F 43.1 °F 39.2 °F 81% 30.06 in 3.1 mi NNE 3.5 mph - N/A   Mist
9:30 PM 42.8 °F 41.1 °F 39.2 °F 87% 30.06 in - NNE 3.5 mph - N/A   Mist
10:00 PM 42.8 °F 41.1 °F 39.2 °F 87% 30.06 in 3.1 mi NNE 3.5 mph - N/A   Mist
10:30 PM 42.8 °F - 41.0 °F 93% 30.06 in 4.3 mi Variable 2.3 mph - N/A   Unknown
11:00 PM 41.0 °F - 39.2 °F 93% 30.06 in 4.3 mi Variable 2.3 mph - N/A   Unknown
11:30 PM 42.8 °F 41.1 °F 39.2 °F 87% 30.06 in 5.6 mi Variable 3.5 mph - N/A   Unknown